User: anonymous   Login
Location: Axtheid
(49.6213°N, 11.8205°E)
Time: 08:23:53
(UTC+00:00)
Language:

SeaSat 1 - Orbit

View from above orbital plane
View from above orbital plane
View from above satellite
View from above satellite

Ground track
Ground track

The orbit data is extracted from the following two-line orbital elements,

1 10967U 78064A   21101.87064319 -.00000052  00000-0  24967-4 0  9991
2 10967 108.0011 334.5547 0002744 272.5895  87.4935 14.43870224247589
Epoch (UTC): 11 April 2021 20:53:43
Eccentricity: 0.0002744
inclination: 108.0011°
perigee height: 744 km
apogee height: 747 km
right ascension of ascending node: 334.5547°
argument of perigee: 272.5895°
revolutions per day: 14.43870224
mean anomaly at epoch: 87.4935°
orbit number at epoch: 24758

The dashed part of the orbit path shows where the satellite is in the earth's shadow,  

DLR